Погода в Ханты-Мансийске

Россия / Ханты-Мансийский автономный округ - Югра     61°00′11″N   69°01′08″E
темп.,
°C
ветер,
м/с
пор.,
м/с
влажн.,
%
обл.,
%
осадки,
мм/ч
давл.,
гПа
погр.,
м
17 октября, вс
вс1723:00+6ююз598199 0.0 1015171
02:00+4ююз589055 0.0 1015120
05:00+5ююз4786100 0.0 1015175
08:00+5юз4789100 0.0 1015194
11:00+6юз6987100 0.0 1015413
14:00+8юз796784 0.0 10141090
17:00+6ююз6971100 0.0 1013154
20:00+6юз7127175 0.0 1013379
18 октября, пн
пн1823:00+6юз71271100 0.0 1012418
02:00+4юз611815 0.0 1012227
05:00+3юз6108732 0.0 1012189
08:00+3ююз6108765 0.0 1012181
11:00+7ююз8136915 0.0 1012639
14:00+8ююз8136799 0.0 1011824
17:00+7ююз71273100 0.0 1011258
20:00+6ююз61174100 0.0 1011243
19 октября, вт
вт1923:00+5ююз5992100 0.0 1011200
02:00+4ююз479686 0.0 1010139
05:00+6ю4797100 0.0 1010190
08:00+6ю5995100 0.3 1009273
11:00+7ю71185100 0.3 1007412
14:00+8ююз91582100 0.0 1006645
17:00+9ююз91472100 0.0 1005415
20:00+8ююз101583100 0.8 1005628
20 октября, ср
ср2023:00+7юз81384100 0.9 1005473
02:00+4зюз6106685 0.1 1007236
05:00+2зюз477498 0.1 1008135
08:00+2зюз4679100 0.0 1009128
11:00+3з3568100 0.0 1009370
14:00+4з2360100 0.0 1010475
17:00+1сз1172100 0.0 101010
20:00+1с117199 0.0 101110
21 октября, чт
чт2123:00+1св227199 0.0 101018
02:00+1св3474100 0.0 100970
05:00+1св3475100 0.0 1008107
08:00+1св3478100 0.0 1007136
11:00+1с4697100 0.6 1006268
14:00+1ссз5789100 0.8 1005482
17:000сз44896 0.8 100551
20:00−1зсз2289100 0.0 100512